Regional Weather Roundup
Issued by NWS Cleveland, OH

Home | Current Version | Previous Version | Text Only | Print | Product List | Glossary Off
Versions: 1 2 3 4 5 6 7 8 9 10 11 12 13 14 15 16 17 18 19 20 21 22 23 24 25 26 27 28 29 30 31 32 33 34 35 36 37 38 39 40 41 42 43 44 45 46 47 48 49 50

000
ASUS41 KCLE 012200
RWRCLE
OHIO REGIONAL WEATHER ROUNDUP
NATIONAL WEATHER SERVICE WILMINGTON, OH
600 PM EDT SAT AUG 01 2015

NOTE: "FAIR" INDICATES FEW OR NO CLOUDS BELOW 12,000 FEET WITH NO
SIGNIFICANT WEATHER AND/OR OBSTRUCTIONS TO VISIBILITY.

OHZ001>008-015>018-024>027-034-035-043-044-012300-
   NORTHWEST OHIO

CITY           SKY/WX    TMP DP  RH WIND       PRES   REMARKS
DEFIANCE       MOSUNNY   83  51  33 W8G18     29.93S
FINDLAY        MOSUNNY   84  51  31 W13       29.92S
TOLEDO EXPRESS SUNNY     82  53  36 W14       29.90F
TOLEDO EXEC    MOSUNNY   83  50  31 W15       29.90F
LIMA           MOSUNNY   80  54  40 NW10G16   29.95S
$$

OHZ009>014-019>023-028>033-038-089-012300-
   NORTHEAST OHIO

CITY           SKY/WX    TMP DP  RH WIND       PRES   REMARKS
CLE-HOPKINS    MOSUNNY   82  53  36 W13       29.92F
CLE-LAKEFRONT  MOSUNNY   80  58  46 W12       29.89F
CUY CO. ARPT   MOSUNNY   81  55  41 W14       29.92S
LORAIN-ELYRIA  SUNNY     80  55  42 W10       29.92S
ASHTABULA      SUNNY     79  52  38 W10G17    29.90F
AKRON-CANTON   MOSUNNY   79  54  41 W8        29.93S
WOOSTER        NOT AVBL
MANSFIELD      MOSUNNY   79  53  40 W7        29.95S
YOUNGSTOWN     MOSUNNY   80  53  39 NW10      29.91F
$$

OHZ042-051>053-060>062-070>072-077>081-012300-
  SOUTHWEST OHIO

CITY           SKY/WX    TMP DP  RH WIND       PRES   REMARKS
CINC-COVINGTON PTSUNNY   81  56  42 NW8       29.98F
CINC-LUNKEN    MOSUNNY   82  57  42 W7        29.97F
HAMILTON       MOSUNNY   83  54  36 NW9       29.98S
DAYTON         NOT AVBL
WRIGHT-PAT AFB NOT AVBL
DAYTON GENERAL SUNNY     82  52  35 NW9       29.98S
WILMINGTON     MOSUNNY   80  53  39 NW8       29.98S
$$

OHZ036-037-039>041-045>050-054>059-063>069-073>076-082>088-012300-
  CENTRAL AND SOUTHEAST OHIO

CITY           SKY/WX    TMP DP  RH WIND       PRES   REMARKS
COLUMBUS       MOSUNNY   81  54  39 NW8       29.94S
OSU AIRPORT    SUNNY     80  58  46 W14G20    29.95S
BOLTON FIELD   SUNNY     81  57  44 W6        29.96F
RICKENBACK AFB NOT AVBL
NEWARK         SUNNY     80  55  42 NW8       29.94S
MARION         MOSUNNY   80  51  36 W13       29.95S
LANCASTER      SUNNY     81  57  43 W9        29.96S
ZANESVILLE     MOSUNNY   82  53  36 W10       29.94S
NEW PHILLY     MOSUNNY   77  59  53 W5        29.93F
$$



USA.gov is the U.S. government's official web portal to all federal, state and local government web resources and services.